This is the latest recevied weather packets stored in our database for station/object SR2CPA-13. If no packets are shown the sender has not sent any weather packets the latest 10 day(s).
| Time | Temp. | Humidity | Pressure | Rain* | Wind** | Luminosity | Snow |
|---|---|---|---|---|---|---|---|
| 1777537527 | 11.11° C | 45% | 0 hPa | 0 mm | - | - | - |
| 1777536908 | 10.56° C | 49% | 0 hPa | 0 mm | - | - | - |
| 1777536267 | 10° C | 52% | 0 hPa | 0 mm | - | - | - |
| 1777535667 | 8.89° C | 51% | 0 hPa | 0 mm | - | - | - |
| 1777535047 | 8.33° C | 53% | 0 hPa | 0 mm | - | - | - |
| 1777534447 | 7.78° C | 55% | 0 hPa | 0 mm | - | - | - |
| 1777533847 | 7.22° C | 57% | 0 hPa | 0 mm | - | - | - |
| 1777533227 | 7.22° C | 59% | 0 hPa | 0 mm | - | - | - |
| 1777532627 | 6.67° C | 63% | 0 hPa | 0 mm | - | - | - |
| 1777532007 | 6.11° C | 62% | 0 hPa | 0 mm | - | - | - |
| 1777531407 | 6.11° C | 63% | 0 hPa | 0 mm | - | - | - |
| 1777530807 | 5.56° C | 64% | 0 hPa | 0 mm | - | - | - |
| 1777530187 | 5.56° C | 66% | 0 hPa | 0 mm | - | - | - |
| 1777529587 | 5° C | 69% | 0 hPa | 0 mm | - | - | - |
| 1777528987 | 5° C | 71% | 0 hPa | 0 mm | - | - | - |
| 1777527767 | 4.44° C | 85% | 0 hPa | 0 mm | - | - | - |
| 1777527147 | 3.89° C | 84% | 0 hPa | 0 mm | - | - | - |
| 1777526547 | 3.89° C | 97% | 0 hPa | 0 mm | - | - | - |
| 1777525927 | 3.33° C | 99% | 0 hPa | 0 mm | - | - | - |
| 1777525327 | 2.78° C | 99% | 0 hPa | 0 mm | - | - | - |
| 1777524727 | 2.22° C | 99% | 0 hPa | 0 mm | - | - | - |
| 1777524107 | 2.22° C | 99% | 0 hPa | 0 mm | - | - | - |
| 1777523507 | 1.67° C | 99% | 0 hPa | 0 mm | - | - | - |
| 1777522907 | 1.11° C | 99% | 0 hPa | 0 mm | - | - | - |
| 1777522307 | 0.56° C | 99% | 0 hPa | 0 mm | - | - | - |
* Rain latest hour (hover to see other rain measurements)
** Current wind speed in m/s (hover to see current wind gust speed)